GW6355 Weather Reports


Display with metric or nautical units.
time (UTC)temp
F
wind
direction
speed
MPH
gust
MPH
rain 1hr
in
rain 24hr
in
rain mn
in
humidity
%
barometer
mb
20260906073048 69 18 2.0 7.0 0.00 0.03 0.00 85 1016.5
20260906071545 69 51 2.0 7.0 0.00 0.03 0.00 85 1016.5
20260906070044 69 49 3.0 8.0 0.00 0.03 0.00 86 1016.4
20260906064549 69 77 3.0 7.0 0.00 0.03 0.00 87 1016.6
20260906063048 69 53 3.0 7.0 0.00 0.03 0.00 87 1016.6
20260906061549 69 46 3.0 9.0 0.00 0.03 0.00 88 1016.7
20260906060045 68 39 3.0 5.0 0.00 0.03 0.00 90 1016.5
20260906054603 68 34 2.0 8.0 0.00 0.03 0.00 90 1016.3
20260906053048 68 0 2.0 5.0 0.00 0.03 0.00 91 1016.1
20260906051546 68 0 0.0 3.0 0.00 0.03 0.00 91 1016.1
20260906050046 68 97 1.0 7.0 0.00 0.03 0.00 91 1016.1
20260906044549 68 0 0.0 3.0 0.00 0.03 0.00 91 1016.0
20260906043045 69 79 0.0 8.0 0.00 0.03 0.00 91 1015.8
20260906041546 69 0 1.0 4.0 0.00 0.03 0.00 91 1015.8
20260906040048 70 48 0.0 5.0 0.00 0.03 0.00 90 1015.9
20260906034552 71 45 2.0 7.0 0.00 0.03 0.03 89 1016.1
20260906033046 71 118 1.0 5.0 0.00 0.03 0.03 90 1016.1
20260906031605 71 62 3.0 13.0 0.00 0.03 0.03 88 1016.1
20260906030049 72 11 4.0 11.0 0.00 0.03 0.03 91 1015.9
20260906024558 72 59 3.0 8.0 0.00 0.03 0.03 91 1015.7
20260906023047 72 93 4.0 9.0 0.00 0.03 0.03 90 1015.4
20260906021546 73 67 4.0 10.0 0.00 0.03 0.03 90 1015.3
20260906020047 73 58 1.0 9.0 0.00 0.03 0.03 91 1015.3
20260906014544 74 79 1.0 6.0 0.00 0.03 0.03 90 1014.9
20260906013050 74 135 2.0 18.0 0.00 0.03 0.03 89 1014.6
20260906011548 75 225 6.0 13.0 0.00 0.03 0.03 89 1014.5
20260906010051 75 71 4.0 11.0 0.00 0.03 0.03 90 1014.4
20260906004546 75 84 2.0 7.0 0.00 0.03 0.03 89 1014.2
20260906003050 76 109 3.0 11.0 0.00 0.03 0.03 90 1013.9
20260906001548 76 55 2.0 7.0 0.00 0.03 0.03 89 1013.6
20260906000055 77 347 1.0 10.0 0.00 0.03 0.03 86 1013.6
20260905234550 78 56 5.0 11.0 0.00 0.03 0.03 82 1013.6
20260905233053 80 67 8.0 13.0 0.00 0.03 0.03 81 1013.7
20260905231546 82 340 2.0 5.0 0.00 0.03 0.03 81 1013.3
20260905230048 84 0 1.0 5.0 0.00 0.03 0.03 77 1012.9
20260905224549 84 5 3.0 8.0 0.00 0.03 0.03 77 1013.2
20260905223046 84 41 4.0 7.0 0.00 0.03 0.03 76 1013.1
20260905221544 85 31 3.0 9.0 0.00 0.03 0.03 75 1013.2
20260905220052 85 23 3.0 7.0 0.00 0.03 0.03 76 1013.0
20260905214550 85 31 6.0 10.0 0.00 0.03 0.03 76 1012.8
20260905213048 85 28 7.0 12.0 0.00 0.03 0.03 77 1012.8
20260905211601 85 349 7.0 13.0 0.00 0.03 0.03 75 1012.7
20260905204550 85 12 6.0 14.0 0.00 0.03 0.03 76 1012.9
20260905203045 86 44 8.0 12.0 0.00 0.03 0.03 76 1012.7
20260905201551 85 1 5.0 10.0 0.00 0.03 0.03 76 1013.0
20260905200101 87 39 7.0 11.0 0.00 0.03 0.03 73 1013.0
20260905194547 87 1 5.0 7.0 0.00 0.03 0.03 72 1013.3
20260905193044 87 35 3.0 7.0 0.00 0.03 0.03 74 1013.3
20260905191553 86 322 4.0 8.0 0.00 0.03 0.03 74 1013.4
20260905190051 88 317 6.0 10.0 0.00 0.03 0.03 69 1013.6
20260905184551 87 255 3.0 8.0 0.00 0.03 0.03 69 1013.7
20260905183046 87 279 3.0 7.0 0.00 0.03 0.03 69 1013.8
20260905181544 86 302 4.0 9.0 0.00 0.03 0.03 70 1013.9
20260905180059 86 282 3.0 8.0 0.00 0.03 0.03 69 1013.9
20260905174553 86 277 4.0 6.0 0.00 0.03 0.03 69 1014.1
20260905173058 86 192 2.0 6.0 0.00 0.03 0.03 72 1014.4
20260905171544 84 175 3.0 9.0 0.00 0.03 0.03 72 1014.6
20260905170050 84 188 6.0 12.0 0.00 0.03 0.03 73 1014.7
20260905164549 83 209 7.0 12.0 0.00 0.03 0.03 75 1014.7
20260905163045 82 188 5.0 10.0 0.00 0.03 0.03 75 1014.9
20260905161545 80 199 5.0 9.0 0.00 0.03 0.03 76 1015.1
20260905160049 79 188 5.0 9.0 0.00 0.03 0.03 80 1015.0
20260905154551 77 179 4.0 6.0 0.03 0.03 0.03 84 1014.9
20260905153046 75 192 3.0 5.0 0.03 0.03 0.03 86 1014.8
20260905151548 73 151 2.0 7.0 0.03 0.03 0.03 88 1014.9
20260905150048 75 162 5.0 7.0 0.03 0.03 0.03 83 1015.2
20260905144546 76 165 3.0 7.0 0.00 0.00 0.00 81 1015.2
20260905143049 76 217 4.0 12.0 0.00 0.00 0.00 82 1014.9
20260905141551 75 216 5.0 12.0 0.00 0.00 0.00 84 1014.5
20260905140047 74 210 7.0 14.0 0.00 0.00 0.00 85 1014.4
20260905134557 73 155 6.0 12.0 0.00 0.00 0.00 85 1014.5
20260905133053 72 192 7.0 15.0 0.00 0.00 0.00 87 1014.3
20260905131544 73 168 7.0 13.0 0.00 0.00 0.00 86 1014.3
20260905130047 71 160 7.0 12.0 0.00 0.00 0.00 88 1014.3
20260905124548 71 203 7.0 12.0 0.00 0.00 0.00 89 1014.3
20260905123045 70 163 6.0 10.0 0.00 0.00 0.00 91 1014.5
20260905121548 69 159 6.0 10.0 0.00 0.00 0.00 92 1014.6
20260905120047 69 179 3.0 5.0 0.00 0.00 0.00 93 1014.6
20260905114545 69 191 1.0 3.0 0.00 0.00 0.00 92 1014.7
20260905113043 69 145 2.0 5.0 0.00 0.00 0.00 92 1014.6
20260905111548 69 150 2.0 5.0 0.00 0.00 0.00 91 1014.6
20260905104544 70 167 1.0 7.0 0.00 0.00 0.00 90 1014.5
20260905103049 70 219 2.0 4.0 0.00 0.00 0.00 90 1014.5
20260905101602 70 221 1.0 4.0 0.00 0.00 0.00 90 1014.7
20260905100048 70 108 1.0 5.0 0.00 0.00 0.00 88 1014.7
20260905094547 72 115 2.0 4.0 0.00 0.00 0.00 87 1014.8
20260905093045 75 123 2.0 7.0 0.00 0.00 0.00 94 1014.9
20260905091600 74 94 3.0 13.0 0.00 0.00 0.00 95 1014.4
20260905090045 74 0 0.0 0.0 0.00 0.00 0.00 94 1013.6
20260905084545 74 0 0.0 0.0 0.00 0.00 0.00 94 1013.5
20260905083042 74 0 0.0 0.0 0.00 0.00 0.00 93 1013.6
20260905081547 74 0 0.0 1.0 0.00 0.00 0.00 92 1013.6
20260905080045 75 0 0.0 1.0 0.00 0.00 0.00 91 1013.6
20260905074545 76 270 0.0 4.0 0.00 0.00 0.00 91 1013.5